FW1217 Weather Reports


Display with metric or nautical units.
time (UTC)temp
F
wind
direction
speed
MPH
gust
MPH
rain 1hr
in
rain 24hr
in
rain mn
in
humidity
%
barometer
mb
20260903033036 79 217 1.0 3.0 0.00 0.00 0.00 82 1015.5
20260903031536 80 266 1.0 3.0 0.00 0.00 0.00 80 1015.6
20260903030036 80 200 0.0 2.0 0.00 0.00 0.00 80 1015.6
20260903024536 81 198 0.0 3.0 0.00 0.00 0.00 79 1015.8
20260903023036 81 194 0.0 2.0 0.00 0.00 0.00 79 1016.0
20260903021538 81 193 0.0 2.0 0.00 0.00 0.00 78 1016.0
20260903020040 82 193 0.0 1.0 0.00 0.00 0.00 77 1016.0
20260903014546 82 193 0.0 1.0 0.00 0.00 0.00 76 1015.9
20260903013034 82 193 0.0 2.0 0.00 0.00 0.00 77 1015.7
20260903011541 83 193 0.0 0.0 0.00 0.00 0.00 77 1015.7
20260903010039 84 193 0.0 1.0 0.00 0.00 0.00 75 1015.6
20260903004533 84 193 0.0 1.0 0.00 0.00 0.00 73 1015.4
20260903003031 85 193 0.0 2.0 0.00 0.00 0.00 71 1015.2
20260903001530 86 215 0.0 3.0 0.00 0.00 0.00 70 1015.2
20260903000030 86 215 0.0 2.0 0.00 0.00 0.00 70 1015.2
20260902234529 87 224 0.0 3.0 0.00 0.00 0.00 70 1015.1
20260902233031 88 227 1.0 4.0 0.00 0.00 0.00 69 1015.2
20260902231541 89 239 2.0 4.0 0.00 0.00 0.00 67 1015.1
20260902230029 90 231 1.0 6.0 0.00 0.00 0.00 65 1015.3
20260902224526 90 201 3.0 7.0 0.00 0.00 0.00 62 1015.3
20260902223036 91 285 3.0 7.0 0.00 0.00 0.00 61 1015.2
20260902221530 92 213 3.0 10.0 0.00 0.00 0.00 60 1015.3
20260902220032 92 184 5.0 10.0 0.00 0.00 0.00 59 1015.4
20260902214524 92 277 4.0 10.0 0.00 0.00 0.00 59 1015.4
20260902213025 93 212 5.0 13.0 0.00 0.00 0.00 57 1015.4
20260902211522 93 257 5.0 10.0 0.00 0.00 0.00 57 1015.5
20260902210021 93 265 3.0 9.0 0.00 0.00 0.00 57 1015.6
20260902204520 93 221 4.0 13.0 0.00 0.00 0.00 58 1015.7
20260902203019 93 294 6.0 12.0 0.00 0.00 0.00 57 1015.9
20260902201518 94 270 4.0 13.0 0.00 0.00 0.00 57 1016.0
20260902200019 94 278 3.0 9.0 0.00 0.00 0.00 56 1016.2
20260902194534 94 232 3.0 11.0 0.00 0.00 0.00 57 1016.3
20260902193016 94 278 5.0 9.0 0.00 0.00 0.00 57 1016.7
20260902191515 94 244 5.0 9.0 0.00 0.00 0.00 57 1016.7
20260902190013 94 196 4.0 10.0 0.00 0.00 0.00 58 1016.8
20260902184512 94 244 4.0 11.0 0.00 0.00 0.00 57 1016.9
20260902183011 94 284 4.0 10.0 0.00 0.00 0.00 57 1017.0
20260902181511 93 261 4.0 10.0 0.00 0.00 0.00 58 1017.3
20260902180009 94 238 4.0 12.0 0.00 0.00 0.00 57 1017.5
20260902174510 93 288 4.0 11.0 0.00 0.00 0.00 59 1017.5
20260902173008 93 290 4.0 12.0 0.00 0.00 0.00 59 1017.6
20260902171503 93 279 5.0 10.0 0.00 0.00 0.00 61 1017.6
20260902170100 92 190 3.0 9.0 0.00 0.00 0.00 61 1017.6
20260902164558 92 263 3.0 7.0 0.00 0.00 0.00 62 1017.6
20260902163054 91 206 3.0 6.0 0.00 0.00 0.00 65 1017.8
20260902161553 90 274 3.0 10.0 0.00 0.00 0.00 65 1017.9
20260902154542 89 290 3.0 8.0 0.00 0.00 0.00 66 1018.1
20260902153039 89 235 3.0 8.0 0.00 0.00 0.00 67 1018.1
20260902151540 88 236 3.0 7.0 0.00 0.00 0.00 68 1018.2
20260902150031 87 279 4.0 8.0 0.00 0.00 0.00 70 1018.3
20260902144526 86 190 3.0 8.0 0.00 0.00 0.00 71 1018.3
20260902143022 85 281 5.0 10.0 0.00 0.00 0.00 72 1018.1
20260902141517 84 221 4.0 11.0 0.00 0.00 0.00 74 1018.0
20260902140016 83 279 6.0 10.0 0.00 0.00 0.00 75 1018.0
20260902134519 82 279 4.0 9.0 0.00 0.00 0.00 78 1018.1
20260902133007 81 231 4.0 8.0 0.00 0.00 0.00 79 1018.1
20260902131502 80 275 3.0 8.0 0.00 0.00 0.00 82 1018.1
20260902130059 78 231 2.0 7.0 0.00 0.00 0.00 83 1017.9
20260902124556 77 207 2.0 5.0 0.00 0.00 0.00 85 1017.8
20260902123051 76 276 2.0 5.0 0.00 0.00 0.00 86 1017.8
20260902121548 75 238 2.0 4.0 0.00 0.00 0.00 88 1017.7
20260902120044 74 227 0.0 2.0 0.00 0.01 0.00 89 1017.6
20260902114543 73 227 0.0 0.0 0.00 0.01 0.00 89 1017.6
20260902113041 73 227 0.0 0.0 0.00 0.01 0.00 89 1017.6
20260902111535 73 227 0.0 2.0 0.00 0.01 0.00 89 1017.5
20260902110040 72 228 0.0 3.0 0.00 0.01 0.00 90 1017.5
20260902104548 72 233 0.0 1.0 0.00 0.01 0.00 90 1017.4
20260902103033 72 233 0.0 2.0 0.00 0.01 0.00 90 1017.3
20260902101533 72 233 0.0 0.0 0.00 0.01 0.00 90 1017.3
20260902100032 72 233 0.0 1.0 0.00 0.01 0.00 91 1017.5
20260902094531 72 233 0.0 0.0 0.00 0.01 0.00 90 1017.3
20260902093034 73 233 0.0 0.0 0.00 0.01 0.00 90 1017.4
20260902091528 73 233 0.0 0.0 0.00 0.01 0.00 89 1017.3
20260902090028 73 233 0.0 0.0 0.00 0.01 0.00 89 1017.3
20260902084525 73 233 0.0 0.0 0.00 0.01 0.00 89 1017.4
20260902083024 74 233 0.0 0.0 0.00 0.01 0.00 89 1017.1
20260902081524 74 233 0.0 0.0 0.00 0.01 0.00 88 1017.0
20260902080023 74 233 0.0 0.0 0.00 0.01 0.00 88 1016.9
20260902074520 74 233 0.0 0.0 0.00 0.01 0.00 87 1016.9
20260902073021 75 233 0.0 0.0 0.00 0.01 0.00 87 1016.8
20260902071530 75 233 0.0 2.0 0.00 0.01 0.00 87 1016.9
20260902070020 74 234 0.0 1.0 0.00 0.01 0.00 88 1016.8
20260902064520 74 234 0.0 0.0 0.00 0.01 0.00 88 1016.8
20260902063017 75 234 0.0 0.0 0.00 0.01 0.00 87 1016.7
20260902061514 76 234 0.0 0.0 0.00 0.01 0.00 85 1016.6
20260902060013 76 234 1.0 3.0 0.00 0.01 0.00 85 1016.4
20260902054512 76 211 2.0 4.0 0.00 0.01 0.00 85 1016.4
20260902053011 77 258 3.0 7.0 0.00 0.01 0.00 84 1016.2
20260902051510 77 224 2.0 4.0 0.00 0.01 0.00 85 1016.2
20260902050009 76 227 2.0 3.0 0.00 0.01 0.00 85 1016.5
20260902044513 76 210 1.0 4.0 0.00 0.01 0.00 85 1016.4
20260902043003 76 251 1.0 4.0 0.00 0.01 0.00 85 1016.5
20260902041600 77 240 0.0 3.0 0.00 0.01 0.00 85 1016.7
20260902040056 77 249 1.0 3.0 0.00 0.01 0.00 83 1016.6
20260902034556 78 241 1.0 3.0 0.00 0.01 0.01 82 1016.6